Flag for Germany Weather past 2 weeks in Rheine, North Rhine-Westphalia, Germany

Now
52 °F

Cool.


Feels Like: 47 °F
Forecast: 49 / 51 °F
Wind: 14 mph from Southwest

Location: Rheine-Bentlage

Current Time: Dec 22, 2014 at 11:02:53 AM

Latest Report: Dec 22, 2014 at 10:20 AM


Visibility: N/A

Pressure: 29.95 "Hg

Humidity: 100%

Dew point: 52 °F

Location of RheineLocation

Historic Weather in Rheine — Graph

°F

Rheine temperature yesterday

Maximum temperature yesterday: 52 °F (at 12:20 AM)
Minimum temperature yesterday: 52 °F (at 12:20 AM)
Average temperature yesterday: 52 °F

Past Weeks' High & Low Weather Summary

 TemperatureHumidityPressure
High54 °F (Dec 18, 2:20 PM)100% (Dec 7, 10:20 PM)30.36 "Hg (Dec 7, 10:20 PM)
Low34 °F (Dec 8, 8:20 AM)66% (Dec 10, 4:20 PM)29.30 "Hg (Dec 12, 1:20 PM)
Average44 °F91%29.89 "Hg
* Reported Dec 7 9:20 AM — Dec 22 9:20 AM, Rheine, Weather by CustomWeather, © 2014

Note: Actual official high and low records may vary slightly from our data, if they occured in-between our weather recording intervals... More about our weather records

Advertising

Rheine weather history for previous 24 hours

 ConditionsComfort  
Time TempWeatherWind HumidityBarometerVisibility
9:20 AM
Dec 22
52 °FCool.14 mph100%29.95 "HgN/A
8:20 AM52 °FCool.14 mph100%29.95 "HgN/A
7:20 AM52 °FCool.14 mph100%29.95 "HgN/A
6:20 AM52 °FCool.14 mph100%29.98 "HgN/A
5:20 AM52 °FCool.14 mph100%29.98 "HgN/A
4:20 AM52 °FCool.14 mph100%29.98 "HgN/A
3:20 AM52 °FCool.14 mph100%30.01 "HgN/A
2:20 AM52 °FCool.14 mph100%30.04 "HgN/A
1:20 AM52 °FCool.14 mph100%30.04 "HgN/A
12:20 AM52 °FCool.14 mph100%30.07 "HgN/A
11:20 PM
Dec 21
52 °FCool.14 mph100%30.07 "HgN/A
10:20 PM52 °FCool.14 mph100%30.09 "HgN/A
9:20 PM52 °FCool.14 mph100%30.12 "HgN/A
8:20 PM52 °FCool.14 mph100%30.12 "HgN/A
7:20 PM52 °FCool.14 mph100%30.12 "HgN/A
6:20 PM52 °FCool.14 mph100%30.15 "HgN/A
5:20 PM52 °FCool.14 mph100%30.18 "HgN/A
4:20 PM52 °FCool.14 mph100%30.18 "HgN/A
3:20 PM52 °FCool.14 mph100%30.18 "HgN/A
2:20 PM52 °FCool.14 mph100%30.21 "HgN/A
1:20 PM52 °FCool.14 mph100%30.24 "HgN/A
12:20 PM52 °FCool.14 mph100%30.27 "HgN/A
11:20 AM52 °FCool.14 mph100%30.30 "HgN/A
Weather by CustomWeather, © 2014

See weather overviewHow to use our weather pages